Location: Unspecified
(0.0000°N, 0.0000°E)
Time: 05:40:02
(UTC+00:00)

Explorer 7 - Pass Details

Date: 09 October 2020
Orbit: 484 x 678 km, 50.3° (Epoch: 28 October)

Event Time Altitude Azimuth Distance (km) Brightness Sun altitude
Rises 18:52:38 0° 255° (WSW) 2,548 12.0 -16.3°
Reaches altitude 10° 18:56:18 10° 292° (WNW) 1,687 10.2 -17.2°
Maximum altitude 18:57:24 11° 309° (NW) 1,631 9.8 -17.5°
Drops below altitude 10° 18:58:31 10° 326° (NW) 1,705 9.7 -17.7°
Sets 19:02:18 0° 3° (N) 2,630 10.2 -18.7°
